Temp
-5 -5 -5 -5 -6 -6 -6 -6 -6 -6 -5 -5 -5 -5 -5 -5 -5 -5 -5 -5 -5 -5 -5 -5 -6 -6 -6 -6 -6 -6 -6 -7 -7 -7 -7 -7 -7 -7 -7 -7 -7 -7 -7
-5 -4 -4 -5 -5 -6 -6 -6 -6 -6 -6 -5 -5 -5 -5 -5 -6 -5 -5 -5 -5 -5 -5 -5 -5 -5 -5 -6 -6 -6 -6 -6 -6 -6 -6 -6 -7 -6 -7 -6 -6 -6 -6
-5 -6 -6 -5 -5 -5 -6 -6 -6 -6 -7 -6 -5 -6 -5 -5 -5 -5 -5 -5 -5 -5 -5 -5 -5 -5 -5 -5 -5 -5 -6 -6 -6 -6 -6 -6 -6 -6 -6 -6 -6 -6 -6
-6 -7 -6 -6 -6 -5 -6 -6 -6 -6 -6 -7 -6 -6 -6 -6 -6 -6 -5 -5 -5 -5 -5 -5 -5 -5 -5 -5 -5 -5 -5 -5 -6 -6 -6 -5 -6 -6 -6 -6 -6 -6 -6
-6 -7 -6 -7 -6 -6 -6 -6 -6 -6 -6 -6 -6 -6 -6 -6 -6 -6 -5 -5 -5 -5 -5 -5 -5 -5 -5 -5 -5 -5 -5 -5 -5 -5 -5 -5 -5 -5 -5 -6 -6 -6 -6
-6 -7 -7 -6 -6 -6 -6 -6 -6 -6 -6 -6 -6 -6 -6 -6 -6 -5 -5 -5 -5 -5 -5 -5 -5 -5 -5 -5 -5 -5 -5 -5 -5 -5 -5 -5 -5 -5 -5 -5 -5 -6 -6
-7 -6 -6 -6 -7 -6 -7 -6 -6 -6 -6 -6 -6 -6 -6 -6 -6 -6 -5 -5 -5 -5 -5 -5 -5 -5 -5 -5 -5 -5 -5 -5 -5 -6 -6 -6 -6 -5 -5 -5 -5 -5 -5
-7 -7 -8 -8 -7 -7 -7 -7 -7 -7 -7 -6 -6 -6 -6 -6 -6 -6 -6 -5 -5 -5 -5 -5 -5 -5 -5 -5 -5 -5 -5 -6 -6 -6 -6 -6 -5 -5 -5 -6 -5 -5 -5
-8 -8 -8 -7 -7 -7 -7 -7 -7 -7 -7 -7 -7 -7 -6 -7 -6 -6 -6 -6 -5 -5 -6 -5 -5 -5 -6 -6 -5 -5 -5 -5 -5 -5 -5 -6 -6 -6 -6 -5 -5 -5 -5
-8 -8 -8 -8 -7 -7 -7 -7 -7 -7 -7 -7 -7 -7 -7 -7 -7 -7 -6 -6 -6 -6 -6 -6 -6 -6 -6 -6 -5 -5 -5 -6 -5 -5 -5 -5 -6 -6 -6 -6 -5 -5 -5
-8 -8 -8 -8 -7 -7 -7 -7 -7 -7 -7 -7 -8 -8 -8 -8 -7 -7 -6 -6 -6 -6 -6 -6 -6 -6 -6 -6 -6 -5 -5 -5 -5 -5 -5 -5 -6 -6 -6 -5 -5 -5 -5
-9 -9 -8 -8 -8 -8 -7 -7 -7 -7 -7 -8 -8 -8 -8 -8 -8 -7 -7 -7 -6 -6 -6 -6 -6 -6 -6 -6 -6 -6 -6 -6 -5 -5 -5 -6 -6 -6 -6 -5 -5 -5 -6
-9 -9 -9 -9 -9 -8 -8 -8 -7 -7 -7 -7 -7 -8 -8 -8 -8 -8 -8 -8 -7 -7 -6 -6 -6 -6 -6 -6 -6 -6 -6 -6 -6 -5 -6 -6 -6 -6 -6 -6 -5 -5 -5
-9 -9 -9 -9 -9 -8 -8 -8 -8 -8 -7 -7 -7 -7 -7 -8 -8 -8 -8 -8 -7 -7 -6 -6 -7 -7 -6 -6 -6 -6 -6 -6 -5 -5 -6 -6 -5 -5 -5 -6 -6 -6 -5
-10 -10 -10 -9 -9 -9 -9 -9 -8 -9 -8 -8 -8 -7 -7 -7 -8 -7 -8 -8 -7 -7 -7 -7 -7 -7 -7 -7 -6 -6 -6 -6 -6 -5 -5 -6 -6 -5 -5 -6 -6 -6 -6
-11 -11 -10 -10 -10 -9 -9 -9 -9 -9 -9 -8 -9 -8 -8 -7 -7 -7 -7 -8 -8 -7 -8 -8 -8 -7 -7 -7 -7 -7 -6 -6 -5 -5 -5 -5 -5 -5 -5 -6 -6 -6 -6
-12 -12 -12 -11 -10 -10 -10 -9 -9 -9 -9 -9 -9 -9 -9 -8 -8 -8 -8 -7 -7 -7 -7 -7 -7 -7 -7 -7 -7 -7 -7 -6 -6 -6 -6 -6 -5 -5 -5 -5 -6 -6 -6
-13 -13 -13 -13 -13 -12 -11 -10 -10 -9 -9 -9 -9 -9 -9 -9 -9 -9 -9 -8 -7 -7 -7 -7 -7 -7 -7 -7 -7 -7 -6 -7 -6 -6 -7 -6 -6 -6 -5 -5 -5 -6 -6
-15 -14 -15 -15 -14 -14 -13 -13 -12 -11 -10 -10 -9 -9 -9 -9 -9 -9 -9 -9 -8 -7 -7 -7 -7 -7 -7 -7 -6 -6 -7 -6 -7 -6 -5 -7 -7 -7 -6 -6 -6 -7 -7
-15 -15 -15 -15 -15 -15 -15 -14 -14 -14 -13 -12 -11 -11 -11 -10 -9 -9 -9 -8 -8 -8 -8 -7 -7 -7 -6 -7 -6 -6 -6 -7 -8 -7 -7 -7 -7 -7 -6 -6 -7 -7 -8
-16 -15 -16 -15 -15 -15 -15 -15 -15 -15 -14 -14 -14 -13 -13 -12 -11 -10 -10 -9 -9 -9 -9 -8 -8 -7 -7 -7 -7 -6 -7 -7 -6 -8 -6 -7 -7 -7 -6 -7 -7 -8 -8
-16 -16 -16 -16 -16 -16 -16 -16 -16 -15 -15 -15 -14 -14 -14 -13 -13 -12 -12 -11 -10 -9 -9 -9 -8 -8 -8 -7 -7 -7 -7 -7 -8 -7 -7 -7 -7 -7 -7 -7 -7 -7 -7
-17 -17 -17 -17 -16 -16 -16 -16 -16 -16 -15 -15 -15 -15 -14 -14 -13 -13 -13 -13 -12 -11 -10 -9 -9 -9 -8 -8 -8 -7 -7 -8 -8 -8 -7 -7 -7 -7 -7 -6 -7 -7 -7
-19 -19 -19 -18 -18 -18 -18 -18 -18 -17 -18 -17 -16 -16 -16 -15 -14 -14 -13 -14 -14 -13 -12 -11 -10 -9 -9 -9 -9 -8 -8 -8 -8 -8 -8 -8 -7 -8 -7 -7 -7 -7 -7
-21 -21 -21 -21 -20 -20 -21 -20 -20 -20 -20 -19 -18 -18 -17 -17 -15 -14 -14 -14 -14 -14 -14 -12 -11 -10 -10 -9 -10 -10 -9 -9 -9 -8 -8 -9 -8 -8 -8 -7 -8 -7 -7
-22 -22 -22 -22 -22 -21 -21 -21 -20 -20 -20 -19 -19 -18 -18 -17 -16 -16 -15 -14 -14 -14 -14 -14 -13 -12 -11 -10 -10 -11 -11 -10 -10 -9 -9 -9 -9 -9 -9 -8 -8 -8 -8
Height
5923 5927 5931 5934 5938 5941 5944 5948 5949 5946 5951 5956 5958 5960 5965 5963 5964 5968 5970 5970 5970 5970 5971 5972 5974 5975 5975 5976 5977 5978 5978 5979 5980 5981 5981 5981 5982 5982 5982 5981 5981 5980 5979
5919 5922 5926 5929 5933 5937 5941 5944 5947 5946 5947 5955 5959 5962 5962 5961 5963 5966 5969 5969 5969 5969 5970 5971 5973 5974 5975 5975 5977 5977 5977 5978 5979 5979 5980 5980 5981 5980 5980 5979 5979 5978 5977
5915 5916 5919 5925 5928 5932 5936 5940 5944 5946 5945 5946 5952 5956 5956 5959 5963 5964 5966 5967 5968 5969 5970 5970 5972 5972 5973 5974 5975 5975 5976 5977 5977 5978 5978 5978 5978 5978 5977 5977 5976 5974 5974
5904 5907 5913 5916 5923 5926 5930 5935 5939 5942 5944 5946 5947 5950 5954 5957 5961 5962 5963 5964 5966 5966 5967 5968 5970 5971 5972 5972 5973 5973 5974 5974 5975 5975 5975 5975 5975 5974 5974 5973 5972 5972 5971
5901 5886 5908 5914 5917 5920 5926 5930 5934 5938 5941 5943 5945 5947 5950 5953 5956 5958 5959 5960 5962 5964 5965 5965 5967 5968 5968 5969 5969 5970 5971 5971 5971 5971 5972 5972 5970 5970 5969 5969 5969 5969 5966
5900 5901 5904 5899 5909 5914 5918 5923 5927 5932 5935 5938 5941 5944 5946 5949 5951 5954 5955 5956 5957 5960 5962 5962 5964 5964 5964 5965 5966 5966 5967 5967 5967 5967 5967 5966 5966 5966 5964 5964 5963 5963 5963
5890 5893 5898 5901 5906 5909 5912 5915 5919 5924 5928 5932 5935 5939 5942 5944 5946 5948 5950 5951 5953 5954 5956 5958 5959 5959 5959 5961 5961 5962 5963 5963 5963 5963 5963 5962 5963 5961 5960 5959 5958 5958 5957
5884 5887 5893 5897 5901 5904 5908 5911 5913 5917 5921 5925 5928 5931 5935 5938 5940 5941 5943 5945 5947 5950 5951 5952 5953 5954 5955 5955 5955 5956 5958 5958 5958 5957 5957 5957 5959 5957 5957 5956 5956 5955 5954
5879 5883 5888 5891 5895 5899 5902 5904 5907 5911 5914 5916 5920 5923 5926 5929 5931 5933 5934 5937 5940 5943 5944 5945 5946 5948 5948 5947 5949 5949 5951 5952 5951 5951 5952 5952 5952 5953 5952 5952 5950 5951 5950
5871 5875 5879 5882 5886 5891 5893 5896 5899 5903 5907 5910 5913 5915 5918 5920 5922 5924 5925 5926 5931 5934 5935 5936 5937 5939 5939 5938 5940 5942 5945 5945 5943 5944 5946 5946 5945 5945 5945 5945 5944 5944 5945
5864 5866 5869 5872 5877 5881 5884 5886 5889 5893 5897 5900 5903 5906 5909 5911 5912 5913 5914 5915 5918 5921 5925 5927 5928 5929 5929 5929 5930 5933 5937 5935 5935 5937 5939 5940 5939 5938 5936 5936 5937 5938 5938
5853 5856 5859 5862 5865 5869 5873 5876 5879 5882 5885 5889 5893 5895 5897 5900 5901 5902 5905 5908 5909 5912 5916 5917 5918 5919 5921 5921 5922 5925 5925 5924 5926 5929 5932 5932 5930 5930 5929 5930 5930 5930 5930
5839 5842 5846 5850 5853 5856 5859 5863 5867 5870 5873 5876 5880 5884 5887 5889 5888 5893 5894 5896 5897 5899 5902 5906 5909 5910 5911 5913 5915 5916 5917 5916 5917 5919 5921 5923 5921 5920 5921 5922 5922 5923 5924
5826 5829 5832 5835 5837 5841 5845 5849 5853 5855 5859 5863 5866 5869 5872 5876 5876 5879 5880 5882 5884 5887 5889 5892 5894 5896 5897 5899 5900 5902 5904 5905 5906 5907 5909 5910 5911 5910 5911 5912 5913 5912 5914
5811 5814 5816 5820 5824 5827 5830 5833 5838 5841 5843 5846 5850 5853 5857 5861 5862 5865 5867 5869 5871 5873 5875 5876 5879 5882 5885 5888 5890 5892 5893 5892 5893 5894 5894 5897 5898 5898 5901 5900 5901 5902 5903
5795 5797 5800 5802 5805 5809 5813 5817 5820 5824 5827 5831 5833 5835 5840 5844 5846 5849 5852 5854 5857 5859 5864 5866 5866 5866 5871 5874 5875 5876 5879 5880 5880 5880 5881 5883 5885 5885 5887 5888 5890 5890 5891
5780 5781 5782 5784 5787 5790 5794 5797 5801 5804 5807 5812 5813 5817 5820 5827 5829 5832 5833 5836 5839 5842 5847 5851 5854 5856 5858 5858 5861 5863 5867 5867 5866 5866 5867 5869 5872 5874 5875 5876 5877 5878 5880
5763 5765 5766 5767 5768 5770 5772 5775 5778 5782 5786 5790 5792 5796 5800 5805 5809 5811 5813 5818 5823 5822 5828 5833 5837 5841 5845 5847 5848 5850 5850 5851 5851 5850 5852 5857 5858 5860 5863 5864 5864 5867 5868
5747 5748 5749 5750 5751 5752 5753 5755 5756 5758 5761 5765 5769 5772 5774 5778 5783 5789 5792 5797 5802 5806 5809 5811 5817 5823 5827 5830 5833 5835 5836 5840 5838 5826 5818 5841 5847 5847 5850 5851 5852 5854 5855
5731 5732 5732 5732 5733 5734 5734 5735 5736 5737 5739 5741 5744 5748 5749 5748 5754 5764 5769 5776 5781 5788 5790 5792 5795 5802 5809 5813 5816 5820 5821 5822 5826 5825 5825 5828 5834 5834 5838 5837 5837 5840 5843
5714 5714 5714 5714 5713 5713 5713 5713 5714 5714 5715 5716 5719 5722 5723 5723 5729 5734 5741 5747 5755 5761 5766 5771 5775 5779 5788 5795 5799 5800 5803 5809 5811 5812 5818 5821 5821 5822 5823 5823 5825 5826 5829
5694 5694 5694 5693 5692 5691 5689 5689 5688 5688 5688 5689 5692 5695 5697 5698 5704 5708 5710 5717 5722 5730 5738 5738 5755 5765 5767 5771 5780 5784 5788 5790 5795 5796 5800 5804 5805 5807 5808 5808 5810 5812 5815
5673 5672 5670 5668 5666 5665 5663 5661 5660 5659 5659 5660 5662 5665 5668 5670 5674 5681 5686 5689 5694 5702 5711 5720 5735 5740 5742 5750 5758 5766 5771 5775 5779 5781 5783 5785 5787 5789 5789 5789 5794 5796 5800
5654 5651 5648 5645 5642 5638 5634 5631 5629 5627 5627 5628 5629 5630 5634 5638 5644 5652 5658 5664 5670 5675 5680 5688 5700 5712 5720 5726 5734 5744 5751 5755 5759 5763 5765 5771 5773 5775 5776 5777 5780 5783 5787
5637 5634 5630 5626 5621 5616 5609 5603 5600 5598 5598 5599 5600 5602 5606 5609 5615 5624 5631 5637 5645 5650 5654 5658 5667 5680 5692 5702 5710 5719 5730 5736 5742 5747 5750 5753 5757 5758 5761 5763 5765 5767 5770
5623 5620 5615 5609 5602 5597 5590 5585 5581 5578 5577 5577 5578 5579 5583 5586 5591 5598 5605 5613 5619 5625 5631 5634 5638 5647 5661 5673 5685 5695 5707 5716 5722 5727 5730 5734 5737 5741 5743 5746 5749 5751 5753
Wind_Speed
27 27 23 20 16 13 11 10 11 16 14 11 4 8 9 5 4 5 6 6 5 6 5 5 6 6 5 5 5 6 7 7 6 5 6 5 6 7 8 9 10 10 10
26 25 26 23 19 17 15 13 12 14 16 12 13 12 8 4 5 5 6 6 7 7 8 7 6 6 6 6 7 8 7 8 8 8 8 9 9 10 11 12 12 14 15
22 27 26 26 24 20 19 16 15 14 16 15 13 13 8 7 6 6 7 7 7 8 8 8 9 9 7 8 9 8 10 10 11 10 11 11 12 12 13 14 15 17 19
33 33 21 22 27 24 21 20 19 18 18 19 18 17 16 14 12 11 10 10 10 9 8 9 10 10 9 10 11 11 11 13 13 13 14 13 13 14 14 16 17 17 19
28 24 22 21 20 24 25 24 22 20 20 22 23 22 21 20 19 17 14 13 13 13 11 10 10 8 8 8 9 11 13 15 16 16 16 16 17 17 17 17 16 16 20
32 29 27 20 20 22 23 26 25 23 22 22 23 25 24 22 23 22 20 18 17 16 16 15 14 12 12 11 11 11 10 12 13 13 14 17 19 17 17 16 17 17 19
34 34 30 25 23 23 24 25 25 28 28 24 23 23 24 25 26 27 26 26 23 20 19 20 18 18 17 16 17 17 17 16 16 16 15 15 13 14 15 14 15 16 19
22 17 21 24 24 26 27 25 24 25 26 28 29 30 28 27 29 31 32 32 29 27 25 25 23 23 23 22 22 21 21 21 22 22 21 22 16 15 14 13 15 15 16
36 33 30 28 27 27 29 31 29 26 26 26 27 27 26 27 31 34 35 36 35 33 31 31 30 28 29 30 27 27 25 24 26 26 24 24 23 20 20 17 19 16 17
45 43 41 38 36 36 35 34 35 33 30 31 29 28 29 29 30 35 37 39 37 37 37 37 36 34 34 35 34 31 26 28 30 29 25 25 24 23 25 25 24 20 17
47 47 46 44 43 43 42 40 40 39 38 36 38 38 37 36 35 39 42 42 41 41 40 40 40 40 40 39 38 34 29 32 32 29 25 25 25 25 27 28 27 25 23
48 48 49 49 49 47 45 46 45 48 46 44 44 45 45 42 44 42 40 38 40 40 42 43 43 43 42 43 42 37 36 36 35 31 27 26 29 29 29 28 27 26 25
52 51 51 51 51 52 52 51 50 50 51 52 51 49 47 45 44 44 46 45 42 40 40 43 44 46 44 43 43 43 42 41 38 35 33 31 32 34 33 32 31 27 25
57 58 57 57 58 57 57 57 55 57 55 54 53 52 53 51 50 48 51 51 49 44 46 45 41 40 44 46 46 46 46 46 46 43 40 39 39 38 37 36 36 35 31
58 59 61 64 64 64 63 63 62 62 62 62 60 59 57 56 56 53 53 55 51 52 55 48 40 43 42 42 43 42 44 46 44 45 45 43 43 44 41 40 40 39 36
57 58 61 63 65 68 69 70 69 68 68 68 68 68 65 62 62 60 59 58 59 56 52 51 49 44 44 44 49 47 47 47 46 44 41 42 43 43 43 42 41 42 40
56 57 59 62 65 68 70 72 73 74 76 75 75 74 73 71 70 69 68 66 64 63 60 57 53 49 45 49 49 50 59 50 43 42 41 40 40 40 40 38 40 42 40
58 59 59 60 62 64 67 70 73 75 76 78 80 81 80 78 76 77 78 74 70 70 67 64 59 54 51 51 50 50 42 38 41 43 40 41 39 39 39 38 38 40 41
52 53 53 56 59 62 65 67 69 72 76 77 79 82 85 86 85 84 82 81 79 75 74 72 67 61 57 56 55 50 51 49 48 49 46 39 40 38 38 38 39 38 38
56 58 60 63 64 64 66 68 71 73 73 75 77 79 80 86 91 90 89 87 85 81 80 78 77 71 63 60 57 59 60 55 51 50 46 41 42 40 40 39 38 38 36
63 66 67 68 71 72 74 75 76 77 79 79 78 78 76 79 84 85 88 90 90 87 86 84 82 80 73 65 57 54 57 56 58 49 45 51 48 50 45 43 42 42 42
63 64 67 69 71 73 75 77 79 82 84 85 86 85 82 82 77 78 84 85 90 94 92 93 85 81 81 77 66 59 60 62 60 53 59 55 54 52 50 48 47 46 47
64 65 69 73 76 78 80 81 82 84 87 90 93 93 89 87 85 80 79 79 78 85 92 94 87 86 88 83 77 68 66 66 63 61 56 57 53 51 50 50 50 51 50
55 58 63 69 71 75 78 79 80 82 82 80 80 81 80 82 84 82 78 78 75 73 79 91 95 92 89 88 83 77 70 65 62 58 56 56 61 61 55 54 50 48 51
51 55 59 62 64 64 64 65 65 64 62 64 69 68 69 71 74 75 75 74 71 67 67 80 92 95 93 91 85 78 74 68 65 64 56 54 58 52 52 49 52 54 54
52 52 57 59 60 58 55 57 54 53 55 57 57 56 59 62 64 67 70 72 71 73 72 68 81 92 96 95 90 81 73 71 65 59 55 52 52 50 50 52 52 53 50
Wind_Direction
222 224 225 229 230 239 243 237 238 252 244 237 204 223 222 185 203 229 253 248 240 233 238 243 221 216 208 213 225 220 202 214 216 237 246 252 262 265 262 272 289 304 315
236 234 230 228 230 232 236 235 233 243 254 230 229 216 223 197 225 228 235 247 247 252 238 229 237 233 227 225 227 238 239 236 240 246 247 260 267 272 277 279 284 295 304
246 241 233 231 228 228 232 234 232 230 240 250 243 243 236 237 227 243 250 247 244 254 261 252 246 241 239 239 235 233 239 243 245 252 258 260 267 270 274 279 285 292 301
242 229 233 231 232 230 231 232 234 230 228 228 231 234 235 236 241 240 237 246 243 238 244 258 262 261 255 254 253 255 253 254 256 257 262 266 267 270 270 273 283 288 290
233 230 233 234 229 231 234 236 236 235 234 231 228 228 231 231 234 239 234 234 240 244 240 238 244 249 254 256 264 268 269 267 268 270 272 274 274 275 277 279 280 284 286
212 225 226 220 226 228 228 234 237 241 239 238 237 234 232 235 239 241 242 231 229 236 241 245 245 251 253 257 259 261 263 270 277 281 282 281 280 280 284 285 283 281 281
221 220 223 226 234 236 232 235 235 238 242 242 245 246 244 243 242 243 243 243 237 233 236 242 246 249 254 256 260 263 265 268 272 275 277 279 293 288 286 283 282 282 287
241 244 225 237 238 248 244 243 244 242 243 243 246 248 248 251 251 248 246 246 244 241 241 242 244 248 252 256 261 264 265 268 270 274 274 277 277 284 283 280 274 280 286
264 263 259 255 255 248 249 249 249 249 248 245 246 248 249 251 253 253 251 249 249 247 246 247 249 250 255 256 256 260 263 268 270 270 271 275 280 276 274 276 278 277 281
263 261 260 259 255 254 252 250 250 248 251 252 253 255 252 250 260 256 252 252 250 250 250 248 250 251 253 258 262 262 262 266 265 267 272 277 278 276 272 270 266 269 273
256 260 261 260 257 255 254 251 251 248 248 250 253 259 262 263 268 266 254 249 251 250 249 250 251 251 251 255 258 260 263 259 265 267 269 273 273 268 269 271 272 273 272
257 257 259 260 262 260 257 255 252 252 251 251 253 256 259 266 261 261 254 255 254 256 256 252 251 252 255 257 259 259 257 258 262 266 264 264 268 271 269 268 272 277 279
258 258 258 258 258 259 261 259 259 257 256 253 253 254 259 263 267 260 250 254 250 253 253 255 255 255 254 255 261 264 263 263 263 264 265 260 261 264 268 271 271 271 271
259 259 259 259 259 258 259 260 259 261 259 259 259 257 255 258 260 259 247 254 247 247 251 250 251 252 257 255 253 254 258 262 263 262 260 259 260 262 265 267 268 270 271
259 259 259 259 258 258 258 258 259 259 260 261 260 259 258 258 259 258 260 255 252 248 255 261 254 251 253 260 258 257 257 257 257 259 259 257 258 260 262 265 268 268 268
262 262 261 259 258 258 258 258 258 258 259 260 260 261 261 259 261 260 259 258 259 263 266 268 271 263 260 259 257 254 259 255 255 255 255 258 257 259 260 259 262 266 268
265 266 267 267 265 263 261 259 258 260 258 258 258 259 259 260 261 262 262 262 262 262 261 263 265 267 270 268 269 261 255 252 250 250 250 253 260 260 258 258 260 262 262
263 264 265 267 267 267 266 264 262 261 260 260 260 259 259 257 256 256 259 260 261 262 263 263 264 264 264 268 265 265 257 256 260 252 247 251 249 250 255 259 259 260 261
260 259 258 261 264 266 267 269 268 266 263 260 259 259 259 259 257 255 254 256 257 258 261 263 263 261 262 263 267 259 260 251 255 252 240 242 248 250 251 252 255 257 255
254 255 262 266 269 270 270 269 270 270 269 268 264 261 260 259 257 257 256 255 255 255 257 259 262 262 259 260 263 258 258 255 253 260 263 254 253 250 251 248 248 249 250
262 263 266 268 269 271 273 273 273 272 271 268 267 265 261 260 260 259 256 254 254 253 252 253 255 259 261 261 261 261 251 251 249 243 258 258 255 253 250 246 244 244 245
266 266 267 268 269 270 271 272 271 270 269 268 268 266 265 261 257 258 258 256 253 250 250 249 249 253 257 257 255 255 251 251 253 245 255 251 252 260 255 249 249 250 250
269 271 273 274 274 273 273 274 273 271 270 269 268 267 265 261 258 256 254 256 255 254 251 250 248 248 251 254 254 251 248 253 257 259 253 249 253 259 263 258 255 256 258
282 283 282 281 280 279 278 275 273 270 267 265 265 264 258 254 252 252 252 250 254 257 251 248 245 244 245 249 251 250 249 252 252 257 255 254 253 258 266 268 267 269 265
284 287 288 288 287 285 283 281 279 272 266 264 264 260 256 253 248 247 248 250 247 256 258 249 245 242 242 243 246 248 247 249 250 252 249 246 249 255 261 267 263 260 263
287 286 291 292 290 287 283 282 279 275 268 266 262 257 255 252 247 245 244 246 248 252 254 259 247 241 239 240 241 241 242 242 246 241 239 246 249 254 258 263 265 263 261